Time,TemperatureF,DewpointF,PressureIn,WindDirection,WindDirectionDegrees,WindSpeedMPH,WindSpeedGustMPH,Humidity,HourlyPrecipIn,Conditions,Clouds,dailyrainin,SoftwareType,DateUTC
2014-02-23 00:05:00,34.0,28.8,30.05,East,90,0.0,-999.0,81,-99.99,,,0.00,Acu-Link.com,2014-02-23 05:05:00,
2014-02-23 00:20:00,34.0,28.8,30.05,North,0,0.0,-999.0,81,-99.99,,,0.00,Acu-Link.com,2014-02-23 05:20:00,
2014-02-23 00:35:00,33.8,28.6,30.05,East,90,0.0,-999.0,81,-99.99,,,0.00,Acu-Link.com,2014-02-23 05:35:00,
2014-02-23 00:50:00,34.0,29.1,30.05,North,0,1.1,-999.0,82,-99.99,,,0.00,Acu-Link.com,2014-02-23 05:50:00,
2014-02-23 01:05:00,34.2,29.6,30.06,North,0,0.0,-999.0,83,-99.99,,,0.00,Acu-Link.com,2014-02-23 06:05:00,
2014-02-23 01:20:00,34.5,29.9,30.05,NE,45,1.1,-999.0,83,-99.99,,,0.00,Acu-Link.com,2014-02-23 06:20:00,
2014-02-23 01:35:00,34.7,30.1,30.05,NNW,337,1.7,-999.0,83,-99.99,,,0.00,Acu-Link.com,2014-02-23 06:35:00,
2014-02-23 01:50:00,34.9,30.3,30.06,East,90,3.2,-999.0,83,-99.99,,,0.00,Acu-Link.com,2014-02-23 06:50:00,
2014-02-23 02:05:00,34.9,30.3,30.06,NE,45,1.7,-999.0,83,-99.99,,,0.00,Acu-Link.com,2014-02-23 07:05:00,
2014-02-23 02:21:00,34.5,29.9,30.06,NW,315,2.2,-999.0,83,-99.99,,,0.00,Acu-Link.com,2014-02-23 07:21:00,
2014-02-23 02:36:00,34.3,29.7,30.06,SSE,157,2.2,-999.0,83,-99.99,,,0.00,Acu-Link.com,2014-02-23 07:36:00,
2014-02-23 02:51:00,34.2,29.6,30.06,ENE,67,1.1,-999.0,83,-99.99,,,0.00,Acu-Link.com,2014-02-23 07:51:00,
2014-02-23 03:06:00,34.0,29.4,30.05,NE,45,1.7,-999.0,83,-99.99,,,0.00,Acu-Link.com,2014-02-23 08:06:00,
2014-02-23 03:21:00,33.6,29.3,30.04,East,90,0.0,-999.0,84,-99.99,,,0.00,Acu-Link.com,2014-02-23 08:21:00,
2014-02-23 03:36:00,33.3,29.0,30.03,ESE,112,0.0,-999.0,84,-99.99,,,0.00,Acu-Link.com,2014-02-23 08:36:00,
2014-02-23 03:51:00,33.1,29.1,30.03,NNW,337,0.0,-999.0,85,-99.99,,,0.00,Acu-Link.com,2014-02-23 08:51:00,
2014-02-23 04:06:00,33.1,29.1,30.04,NW,315,0.0,-999.0,85,-99.99,,,0.00,Acu-Link.com,2014-02-23 09:06:00,
2014-02-23 04:21:00,32.9,29.2,30.05,North,0,0.0,-999.0,86,-99.99,,,0.00,Acu-Link.com,2014-02-23 09:21:00,
2014-02-23 04:37:00,32.9,29.2,30.06,WNW,292,1.1,-999.0,86,-99.99,,,0.00,Acu-Link.com,2014-02-23 09:37:00,
2014-02-23 04:52:00,32.9,29.2,30.08,NNW,337,2.7,-999.0,86,-99.99,,,0.00,Acu-Link.com,2014-02-23 09:52:00,
2014-02-23 05:07:00,32.7,29.0,30.09,WNW,292,3.2,-999.0,86,-99.99,,,0.00,Acu-Link.com,2014-02-23 10:07:00,
2014-02-23 05:22:00,32.5,28.8,30.09,West,270,0.0,-999.0,86,-99.99,,,0.00,Acu-Link.com,2014-02-23 10:22:00,
2014-02-23 05:37:00,32.5,28.8,30.10,North,0,1.7,-999.0,86,-99.99,,,0.00,Acu-Link.com,2014-02-23 10:37:00,
2014-02-23 05:52:00,32.5,28.8,30.08,NNW,337,2.7,-999.0,86,-99.99,,,0.00,Acu-Link.com,2014-02-23 10:52:00,
2014-02-23 06:07:00,32.5,28.8,30.08,North,0,3.7,-999.0,86,-99.99,,,0.00,Acu-Link.com,2014-02-23 11:07:00,
2014-02-23 06:22:00,32.5,28.8,30.09,NE,45,1.7,-999.0,86,-99.99,,,0.00,Acu-Link.com,2014-02-23 11:22:00,
2014-02-23 06:37:00,32.4,28.7,30.11,NNE,22,4.2,-999.0,86,-99.99,,,0.00,Acu-Link.com,2014-02-23 11:37:00,
2014-02-23 06:52:00,32.0,28.3,30.11,NNE,22,3.2,-999.0,86,-99.99,,,0.00,Acu-Link.com,2014-02-23 11:52:00,
2014-02-23 07:08:00,31.8,26.9,30.09,North,0,2.7,-999.0,82,-99.99,,,0.00,Acu-Link.com,2014-02-23 12:08:00,
2014-02-23 07:23:00,31.5,25.8,30.13,ENE,67,2.7,-999.0,79,-99.99,,,0.00,Acu-Link.com,2014-02-23 12:23:00,
2014-02-23 07:38:00,31.1,25.1,30.14,NNW,337,3.2,-999.0,78,-99.99,,,0.00,Acu-Link.com,2014-02-23 12:38:00,
2014-02-23 07:53:00,30.9,23.9,30.11,NNE,22,4.7,-999.0,75,-99.99,,,0.00,Acu-Link.com,2014-02-23 12:53:00,
2014-02-23 08:08:00,30.7,24.4,30.14,ESE,112,2.2,-999.0,77,-99.99,,,0.00,Acu-Link.com,2014-02-23 13:08:00,
2014-02-23 08:23:00,30.6,23.6,30.14,WNW,292,3.2,-999.0,75,-99.99,,,0.00,Acu-Link.com,2014-02-23 13:23:00,
2014-02-23 08:38:00,30.4,23.1,30.15,ENE,67,4.7,-999.0,74,-99.99,,,0.00,Acu-Link.com,2014-02-23 13:38:00,
2014-02-23 08:53:00,30.7,23.4,30.18,NNE,22,2.2,-999.0,74,-99.99,,,0.00,Acu-Link.com,2014-02-23 13:53:00,
2014-02-23 09:08:00,30.7,23.1,30.18,South,180,1.7,-999.0,73,-99.99,,,0.00,Acu-Link.com,2014-02-23 14:08:00,
2014-02-23 09:24:00,30.7,22.8,30.17,North,0,4.7,-999.0,72,-99.99,,,0.00,Acu-Link.com,2014-02-23 14:24:00,
2014-02-23 09:39:00,30.9,20.2,30.16,NW,315,3.7,-999.0,64,-99.99,,,0.00,Acu-Link.com,2014-02-23 14:39:00,
2014-02-23 09:54:00,30.7,21.4,30.17,West,270,4.2,-999.0,68,-99.99,,,0.00,Acu-Link.com,2014-02-23 14:54:00,
2014-02-23 10:09:00,30.4,20.1,30.16,NW,315,2.7,-999.0,65,-99.99,,,0.00,Acu-Link.com,2014-02-23 15:09:00,
2014-02-23 10:24:00,30.7,20.7,30.18,East,90,1.7,-999.0,66,-99.99,,,0.00,Acu-Link.com,2014-02-23 15:24:00,
2014-02-23 10:39:00,31.3,20.9,30.16,NNW,337,2.7,-999.0,65,-99.99,,,0.00,Acu-Link.com,2014-02-23 15:39:00,
2014-02-23 10:55:00,31.5,21.1,30.14,NNE,22,0.0,-999.0,65,-99.99,,,0.00,Acu-Link.com,2014-02-23 15:55:00,
2014-02-23 11:10:00,31.5,20.0,30.14,WNW,292,1.1,-999.0,62,-99.99,,,0.00,Acu-Link.com,2014-02-23 16:10:00,
2014-02-23 11:25:00,32.4,20.9,30.14,ESE,112,1.1,-999.0,62,-99.99,,,0.00,Acu-Link.com,2014-02-23 16:25:00,
2014-02-23 11:40:00,32.4,22.0,30.14,West,270,3.2,-999.0,65,-99.99,,,0.00,Acu-Link.com,2014-02-23 16:40:00,
2014-02-23 11:55:00,33.6,23.1,30.16,North,0,3.7,-999.0,65,-99.99,,,0.00,Acu-Link.com,2014-02-23 16:55:00,
2014-02-23 12:10:00,33.6,22.7,30.15,WNW,292,4.2,-999.0,64,-99.99,,,0.00,Acu-Link.com,2014-02-23 17:10:00,
2014-02-23 12:25:00,32.9,22.4,30.17,ESE,112,3.7,-999.0,65,-99.99,,,0.00,Acu-Link.com,2014-02-23 17:25:00,
2014-02-23 12:40:00,32.4,22.3,30.17,West,270,2.7,-999.0,66,-99.99,,,0.00,Acu-Link.com,2014-02-23 17:40:00,
2014-02-23 12:55:00,32.7,21.9,30.16,NE,45,3.2,-999.0,64,-99.99,,,0.00,Acu-Link.com,2014-02-23 17:55:00,
2014-02-23 13:11:00,34.0,22.4,30.16,West,270,5.3,-999.0,62,-99.99,,,0.00,Acu-Link.com,2014-02-23 18:11:00,
2014-02-23 13:26:00,35.6,23.5,30.16,NNE,22,3.7,-999.0,61,-99.99,,,0.00,Acu-Link.com,2014-02-23 18:26:00,
2014-02-23 13:41:00,35.8,23.7,30.14,NW,315,7.3,-999.0,61,-99.99,,,0.00,Acu-Link.com,2014-02-23 18:41:00,
2014-02-23 13:56:00,36.1,23.2,30.14,NW,315,5.3,-999.0,59,-99.99,,,0.00,Acu-Link.com,2014-02-23 18:56:00,
2014-02-23 14:11:00,35.2,21.5,30.16,NW,315,5.3,-999.0,57,-99.99,,,0.00,Acu-Link.com,2014-02-23 19:11:00,
2014-02-23 14:26:00,34.2,19.7,30.16,NNW,337,6.8,-999.0,55,-99.99,,,0.00,Acu-Link.com,2014-02-23 19:26:00,
2014-02-23 14:41:00,34.3,20.3,30.17,NW,315,4.7,-999.0,56,-99.99,,,0.00,Acu-Link.com,2014-02-23 19:41:00,
2014-02-23 14:56:00,33.6,17.9,30.15,NNW,337,3.7,-999.0,52,-99.99,,,0.00,Acu-Link.com,2014-02-23 19:56:00,
2014-02-23 15:11:00,33.4,18.6,30.18,NNE,22,4.2,-999.0,54,-99.99,,,0.00,Acu-Link.com,2014-02-23 20:11:00,
2014-02-23 15:27:00,33.6,19.2,30.16,NE,45,6.3,-999.0,55,-99.99,,,0.00,Acu-Link.com,2014-02-23 20:27:00,
2014-02-23 15:42:00,32.9,17.7,30.17,NW,315,4.2,-999.0,53,-99.99,,,0.00,Acu-Link.com,2014-02-23 20:42:00,
2014-02-23 15:57:00,32.4,17.2,30.19,NNW,337,4.7,-999.0,53,-99.99,,,0.00,Acu-Link.com,2014-02-23 20:57:00,
2014-02-23 16:12:00,31.5,16.4,30.16,SSW,202,4.2,-999.0,53,-99.99,,,0.00,Acu-Link.com,2014-02-23 21:12:00,
2014-02-23 16:27:00,32.0,18.1,30.16,NW,315,6.3,-999.0,56,-99.99,,,0.00,Acu-Link.com,2014-02-23 21:27:00,
2014-02-23 16:42:00,31.3,17.4,30.19,North,0,5.3,-999.0,56,-99.99,,,0.00,Acu-Link.com,2014-02-23 21:42:00,
2014-02-23 16:57:00,30.9,16.2,30.17,WNW,292,4.7,-999.0,54,-99.99,,,0.00,Acu-Link.com,2014-02-23 21:57:00,
2014-02-23 17:13:00,30.6,16.4,30.18,North,0,3.7,-999.0,55,-99.99,,,0.00,Acu-Link.com,2014-02-23 22:13:00,
2014-02-23 17:28:00,30.4,16.6,30.18,North,0,7.3,-999.0,56,-99.99,,,0.00,Acu-Link.com,2014-02-23 22:28:00,
2014-02-23 17:43:00,30.0,15.8,30.20,North,0,6.3,-999.0,55,-99.99,,,0.00,Acu-Link.com,2014-02-23 22:43:00,
2014-02-23 17:58:00,29.8,15.6,30.19,North,0,4.2,-999.0,55,-99.99,,,0.00,Acu-Link.com,2014-02-23 22:58:00,
2014-02-23 18:13:00,29.3,14.7,30.19,East,90,4.2,-999.0,54,-99.99,,,0.00,Acu-Link.com,2014-02-23 23:13:00,
2014-02-23 18:43:00,28.0,15.5,30.19,West,270,2.7,-999.0,59,-99.99,,,0.00,Acu-Link.com,2014-02-23 23:43:00,
2014-02-23 18:58:00,27.7,15.3,30.22,WNW,292,3.7,-999.0,59,-99.99,,,0.00,Acu-Link.com,2014-02-23 23:58:00,
2014-02-23 19:13:00,27.5,15.5,30.21,ESE,112,2.7,-999.0,60,-99.99,,,0.00,Acu-Link.com,2014-02-24 00:13:00,
2014-02-23 19:29:00,27.1,15.1,30.21,NNE,22,5.3,-999.0,60,-99.99,,,0.00,Acu-Link.com,2014-02-24 00:29:00,
2014-02-23 19:44:00,26.6,14.2,30.19,West,270,3.2,-999.0,59,-99.99,,,0.00,Acu-Link.com,2014-02-24 00:44:00,
2014-02-23 19:59:00,26.2,14.6,30.23,North,0,3.2,-999.0,61,-99.99,,,0.00,Acu-Link.com,2014-02-24 00:59:00,
2014-02-23 20:14:00,26.1,14.9,30.21,WNW,292,2.7,-999.0,62,-99.99,,,0.00,Acu-Link.com,2014-02-24 01:14:00,
2014-02-23 20:29:00,25.5,14.7,30.23,West,270,3.2,-999.0,63,-99.99,,,0.00,Acu-Link.com,2014-02-24 01:29:00,
2014-02-23 20:44:00,25.7,15.2,30.21,NW,315,2.7,-999.0,64,-99.99,,,0.00,Acu-Link.com,2014-02-24 01:44:00,
2014-02-23 20:59:00,25.9,14.7,30.22,NW,315,4.2,-999.0,62,-99.99,,,0.00,Acu-Link.com,2014-02-24 01:59:00,
2014-02-23 21:14:00,25.7,14.5,30.22,West,270,4.2,-999.0,62,-99.99,,,0.00,Acu-Link.com,2014-02-24 02:14:00,
2014-02-23 21:30:00,25.3,14.5,30.21,NW,315,4.2,-999.0,63,-99.99,,,0.00,Acu-Link.com,2014-02-24 02:30:00,
2014-02-23 21:45:00,25.2,15.1,30.21,NNW,337,4.7,-999.0,65,-99.99,,,0.00,Acu-Link.com,2014-02-24 02:45:00,
2014-02-23 22:00:00,25.2,15.5,30.22,NW,315,4.2,-999.0,66,-99.99,,,0.00,Acu-Link.com,2014-02-24 03:00:00,
2014-02-23 22:15:00,24.8,15.1,30.22,NW,315,4.7,-999.0,66,-99.99,,,0.00,Acu-Link.com,2014-02-24 03:15:00,
2014-02-23 22:31:00,24.6,14.9,30.22,NW,315,5.3,-999.0,66,-99.99,,,0.00,Acu-Link.com,2014-02-24 03:31:00,
2014-02-23 22:46:00,24.4,15.0,30.24,NNW,337,6.3,-999.0,67,-99.99,,,0.00,Acu-Link.com,2014-02-24 03:46:00,
2014-02-23 23:01:00,24.4,14.7,30.24,NW,315,5.3,-999.0,66,-99.99,,,0.00,Acu-Link.com,2014-02-24 04:01:00,
2014-02-23 23:16:00,23.9,14.9,30.23,NNW,337,2.7,-999.0,68,-99.99,,,0.00,Acu-Link.com,2014-02-24 04:16:00,
2014-02-23 23:31:00,23.7,14.7,30.24,NW,315,4.7,-999.0,68,-99.99,,,0.00,Acu-Link.com,2014-02-24 04:31:00,
2014-02-23 23:46:00,23.4,15.1,30.22,SW,225,1.7,-999.0,70,-99.99,,,0.00,Acu-Link.com,2014-02-24 04:46:00,